Location: Dilsberg
(49.3983°N, 8.8354°E)
Time: 06:30:10
(UTC+00:00)

Cosmos 1420 Rocket - Pass Details

Date: 19 May 2025
Orbit: 750 x 777 km, 74.0° (Epoch: 22 June)

Event Time Altitude Azimuth Distance (km) Brightness Sun altitude
Rises 23:34:19 0° 334° (NNW) 3,270 8.3 -20.6°
Reaches altitude 10° 23:36:44 10° 331° (NNW) 2,337 7.3 -20.5°
Maximum altitude 23:41:58 61° 252° (WSW) 877 4.1 -20.5°
Enters shadow 23:43:29 43° 194° (SSW) 1,077 4.3 -20.4°
